Tracking 19562 objects as of 22-Mar-2019
HD Live streaming from Space Station
objects crossing your sky now

FENGYUN 1C DEB

Track FENGYUN 1C DEB now!
10-day predictions


NORAD ID: 31631
Int'l Code: 1999-025CAM
Perigee: 749.0 km
Apogee: 1,026.4 km
Inclination: 99.3 °
Period: 102.6 minutes
Semi major axis: 7258 km
RCS: 0.0204 m2 (small)
Launch date: May 10, 1999
Source: People's Republic of China (PRC)
Launch site: Taiyaun Space Center, China (TSC)

Note: This is SATELLITE DEBRIS
aabbcc
Your satellite tracking list
Your tracking list is empty




NASA's NSSDC Master Catalog

Two Line Element Set (TLE):
1 31631U 99025CAM 19080.50840512  .00001379  00000-0  76839-3 0  9998
2 31631  99.3037 184.1716 0191040  78.3068 283.9466 14.03834435602430
Source of the keplerian elements: AFSPC